Content
SEND FEEDBACK

Daily
Averages
Monthly
Summary
United States of America

CHEROKEE, IOWA


Home > North America > United States > Iowa
Elevation: 1212 feet     Latitude: 42 43N     Longitude: 095 32W

WEATHER
 
SELECT A DAY
Number of Records: 202,598;   Date Range: 10/21/04 - 9/21/14
 
SHARE

PRINT THIS DATA

[ ← Previous Day ]
WEATHER ALMANAC - JANUARY 19, 2013
[ Next Day → ]
[ °C ]   °F
Weather ElementAverageHighLow
Temperature35.3 °F50 °F (1:15 pm)14.4 °F (11:55 pm)
Dewpoint20.9 °F30.2 °F (12:55 pm)-1.1 °F (11:55 pm)
Humidity57 %79 % (12:55 am)32 % (6:35 pm)
Barometer30.00 in30.32 in (11:55 pm)29.78 in (4:35 am)
Wind Speed12.5 mph25.3 mph (9:15 pm)
Wind Gust38 mph (6:55 pm)
Weather ElementAverage
Visibility10 mi
Wind DirectionW (274.4 °)

Weather ElementTotal
Precipitation---
Heating Degree Days32.8 (Base 65)
Averaged from 63 records on January 19, 2013
WEATHER CONDITIONS BREAKOUT
WIND DIRECTION BREAKOUT
WEATHER BY HOUR - JANUARY 19, 2013
[ °C ]   °F
Local TimeTemperatureDewpointHumidityBarometerVisibilityWind DirectionWind SpeedGust SpeedPrecipitationEventsConditions
12:35 AM36.3 °F29.8 °F77 %29.82 in10.0 miSouth (190°)3.5 mphClear
12:55 AM35.4 °F29.5 °F79 %29.82 in10.0 miSSW (200°)5.8 mphClear
1:15 AM35.6 °F28.9 °F77 %29.81 in10.0 miCalmClear
1:35 AM36.3 °F29.8 °F77 %29.81 in10.0 miSouth (170°)3.5 mphClear
1:55 AM34.9 °F29.1 °F79 %29.81 in10.0 miSouth (190°)5.8 mphClear
2:15 AM35.2 °F29.3 °F79 %29.81 in10.0 miSouth (180°)4.6 mphClear
2:35 AM35.8 °F29.3 °F77 %29.81 in10.0 miSSE (150°)4.6 mphClear
2:55 AM34.9 °F29.1 °F79 %29.80 in10.0 miSouth (190°)3.5 mphClear
3:15 AM36.3 °F29.8 °F77 %29.79 in10.0 miSouth (180°)6.9 mphClear
3:35 AM36.7 °F29.8 °F76 %29.79 in10.0 miSouth (190°)4.6 mphScattered Clouds
3:55 AM37.0 °F29.1 °F73 %29.79 in10.0 miCalmMostly Cloudy
4:15 AM36.1 °F29.3 °F76 %29.79 in10.0 miSW (220°)3.5 mphOvercast
4:35 AM36.5 °F28.9 °F74 %29.78 in10.0 miSouth (190°)5.8 mphScattered Clouds
4:55 AM35.8 °F28.4 °F75 %29.80 in10.0 miSSW (200°)6.9 mphClear
5:15 AM35.6 °F28.2 °F75 %29.80 in10.0 miSSW (200°)6.9 mphClear
5:35 AM36.0 °F28.0 °F73 %29.80 in10.0 miSSW (210°)3.5 mphClear
7:15 AM37.2 °F25.7 °F63 %29.82 in10.0 miWSW (250°)6.9 mphClear
7:55 AM35.6 °F25.3 °F66 %29.83 in10.0 miSW (230°)4.6 mphClear
8:15 AM35.1 °F25.3 °F68 %29.83 in10.0 miSSW (210°)4.6 mphClear
8:35 AM35.4 °F25.3 °F67 %29.85 in10.0 miSW (220°)5.8 mphClear
9:55 AM43.0 °F27.0 °F53 %29.89 in10.0 miWNW (290°)10.4 mph16.1 mphClear
10:15 AM43.7 °F27.9 °F54 %29.89 in10.0 miWNW (290°)9.2 mphClear
10:35 AM44.4 °F27.3 °F51 %29.91 in10.0 miWNW (290°)6.9 mphClear
10:55 AM44.6 °F28.0 °F52 %29.92 in10.0 miWNW (300°)10.4 mph20.7 mphClear
11:15 AM45.5 °F28.8 °F52 %29.92 in10.0 miNW (320°)10.4 mph18.4 mphClear
11:35 AM46.4 °F27.7 °F48 %29.92 in10.0 miNW (320°)9.2 mph16.1 mphClear
11:55 AM47.3 °F28.4 °F48 %29.91 in10.0 miNW (310°)9.2 mphClear
12:15 PM47.7 °F29.7 °F50 %29.91 in10.0 miWNW (300°)10.4 mph17.3 mphClear
12:35 PM48.2 °F28.9 °F47 %29.91 in10.0 miNW (310°)10.4 mph23.0 mphClear
12:55 PM49.6 °F30.2 °F47 %29.92 in10.0 miWNW (300°)13.8 mph18.4 mphClear
1:15 PM50.0 °F29.1 °F45 %29.93 in10.0 miNW (310°)16.1 mph24.2 mphClear
1:35 PM50.0 °F27.7 °F42 %29.94 in10.0 miWNW (300°)15.0 mph24.2 mphClear
1:55 PM49.8 °F28.8 °F44 %29.95 in10.0 miNW (320°)18.4 mph24.2 mphClear
2:15 PM48.2 °F27.5 °F45 %29.96 in10.0 miNW (320°)24.2 mph34.5 mphScattered Clouds
2:35 PM47.7 °F28.2 °F47 %29.97 in10.0 miNW (320°)18.4 mph28.8 mphClear
2:55 PM47.7 °F29.5 °F49 %29.99 in10.0 miNW (320°)15.0 mph26.5 mphScattered Clouds
3:15 PM46.8 °F28.8 °F50 %30.00 in10.0 miNW (310°)17.3 mph26.5 mphMostly Cloudy
3:35 PM45.5 °F29.3 °F53 %30.01 in10.0 miWNW (300°)17.3 mph24.2 mphOvercast
3:55 PM45.1 °F29.8 °F55 %30.02 in10.0 miNW (310°)13.8 mph20.7 mphScattered Clouds
4:15 PM45.0 °F29.3 °F54 %30.03 in10.0 miNW (310°)16.1 mph24.2 mphScattered Clouds
4:35 PM43.7 °F27.7 °F53 %30.04 in10.0 miNW (320°)17.3 mph25.3 mphMostly Cloudy
4:55 PM42.8 °F27.9 °F56 %30.06 in10.0 miNW (310°)19.6 mph27.6 mphMostly Cloudy
5:15 PM39.2 °F26.2 °F60 %30.09 in10.0 miNW (320°)19.6 mph29.9 mphMostly Cloudy
5:35 PM36.5 °F22.8 °F58 %30.11 in10.0 miNW (310°)15.0 mph24.2 mphScattered Clouds
5:55 PM35.2 °F13.1 °F40 %30.12 in10.0 miNW (320°)18.4 mph34.5 mphClear
6:15 PM33.1 °F8.1 °F35 %30.14 in10.0 miNW (320°)19.6 mph31.1 mphClear
6:35 PM30.4 °F3.6 °F32 %30.15 in10.0 miNW (320°)23.0 mph36.8 mphClear
6:55 PM28.4 °F5.0 °F37 %30.17 in10.0 miNNW (330°)24.2 mph38.0 mphClear
7:15 PM26.6 °F7.5 °F45 %30.19 in10.0 miNW (320°)21.9 mph33.4 mphClear
7:35 PM24.6 °F9.9 °F54 %30.21 in10.0 miNNW (330°)21.9 mph33.4 mphScattered Clouds
7:55 PM22.6 °F6.8 °F51 %30.23 in10.0 miNNW (330°)20.7 mph34.5 mphMostly Cloudy
8:15 PM21.0 °F5.2 °F51 %30.24 in10.0 miNNW (340°)20.7 mph32.2 mphScattered Clouds
8:35 PM20.3 °F4.5 °F50 %30.26 in10.0 miNW (320°)20.7 mph29.9 mphClear
8:55 PM19.2 °F2.3 °F48 %30.26 in10.0 miNNW (340°)23.0 mph29.9 mphClear
9:15 PM18.5 °F2.1 °F49 %30.27 in10.0 miNNW (330°)25.3 mph31.1 mphClear
9:35 PM18.0 °F0.3 °F46 %30.28 in10.0 miNNW (340°)18.4 mph24.2 mphClear
9:55 PM17.4 °F0.5 °F48 %30.29 in10.0 miNNW (330°)18.4 mph26.5 mphClear
10:15 PM16.7 °F1.6 °F52 %30.30 in10.0 miNNW (340°)13.8 mph18.4 mphClear
10:35 PM16.3 °F0.0 °F49 %30.30 in10.0 miNNW (340°)12.7 mph25.3 mphClear
10:55 PM15.8 °F1.0 °F52 %30.31 in10.0 miNNW (340°)10.4 mph19.6 mphClear
11:15 PM15.3 °F0.1 °F51 %30.30 in10.0 miNNW (340°)17.3 mphClear
11:35 PM14.7 °F-0.8 °F50 %30.31 in10.0 miNNW (340°)13.8 mph20.7 mphClear
11:55 PM14.4 °F-1.1 °F50 %30.32 in10.0 miNNW (340°)8.1 mph19.6 mphClear
Hourly data recorded from KCKP, located miles away from Cherokee, Iowa







STORIES FROM OUR PARTNERS